Observations for CERVIA IT-AFB, Italy (LIPC)

LIPC 260455Z 26005KT CAVOK 20/19 Q1017  
LIPC 260455Z 26005KT CAVOK 20/19 Q1017 RMK SKC VIS MIN 9999 WIND THR11 /////KT WIND THR29 26006KT BLU
LIPC 260355Z 23004KT CAVOK 20/19 Q1016  
LIPC 260355Z 23004KT CAVOK 20/19 Q1016 RMK SKC VIS MIN 9999 WIND THR11 /////KT WIND THR29 24003KT BLU
LIPC 260255Z 25005KT CAVOK 20/19 Q1016  
LIPC 260255Z 25005KT CAVOK 20/19 Q1016 RMK SKC VIS MIN 9999 WIND THR11 /////KT WIND THR29 25005KT BLU
LIPC 260155Z 27005KT CAVOK 20/20 Q1016  
LIPC 260155Z 27005KT CAVOK 20/20 Q1016 RMK SKC VIS MIN 9999 WIND THR11 /////KT WIND THR29 27004KT BLU
LIPC 260055Z 26003KT CAVOK 21/20 Q1017  
LIPC 260055Z 26003KT CAVOK 21/20 Q1017 RMK SKC VIS MIN 9999 WIND THR11 /////KT WIND THR29 27003KT BLU
LIPC 252355Z 20003KT CAVOK 21/20 Q1017  
LIPC 252355Z 20003KT CAVOK 21/20 Q1017 RMK SKC VIS MIN 9999 WIND THR11 /////KT WIND THR29 26003KT BLU
LIPC 252255Z 22005KT CAVOK 22/21 Q1017  
LIPC 252255Z 22005KT CAVOK 22/21 Q1017 RMK SKC VIS MIN 9999 WIND THR11 /////KT WIND THR29 23004KT BLU
LIPC 252155Z 22005KT CAVOK 22/21 Q1017  
LIPC 252155Z 22005KT CAVOK 22/21 Q1017 RMK SKC VIS MIN 9999 WIND THR11 /////KT WIND THR29 23003KT BLU
LIPC 252055Z 22002KT CAVOK 22/21 Q1017  
LIPC 252055Z 22002KT CAVOK 22/21 Q1017 RMK SKC VIS MIN 9999 WIND THR11 /////KT WIND THR29 24002KT BLU
LIPC 251955Z 31002KT CAVOK 24/22 Q1017  
LIPC 251955Z 31002KT CAVOK 24/22 Q1017 RMK SKC VIS MIN 9999 WIND THR11 /////KT WIND THR29 32002KT BLU
LIPC 251855Z 10002KT CAVOK 25/23 Q1017  
LIPC 251855Z 10002KT CAVOK 25/23 Q1017 RMK SKC VIS MIN 9999 WIND THR11 /////KT WIND THR29 13003KT BLU
LIPC 251755Z 13004KT CAVOK 27/23 Q1016  
LIPC 251755Z 13004KT CAVOK 27/23 Q1016 RMK SKC VIS MIN 9999 WIND THR11 /////KT WIND THR29 12004KT BLU
LIPC 251655Z 09005KT CAVOK 27/22 Q1016  
LIPC 251655Z 09005KT CAVOK 27/22 Q1016 RMK SKC VIS MIN 9999 WIND THR11 /////KT WIND THR29 11005KT BLU
LIPC 251555Z 05008KT CAVOK 28/23 Q1016  
LIPC 251555Z 05008KT CAVOK 28/23 Q1016 RMK SKC VIS MIN 9999 WIND THR11 /////KT WIND THR29 06009KT BLU
LIPC 251455Z 06008KT CAVOK 29/22 Q1016  
LIPC 251455Z 06008KT CAVOK 29/22 Q1016 RMK SKC VIS MIN 9999 WIND THR11 /////KT WIND THR29 05010KT BLU
LIPC 251355Z 05009KT 9999 FEW030 29/21 Q1016
LIPC 251355Z 05009KT 9999 FEW030 29/21 Q1016 RMK FEW VIS MIN 9999 WIND THR11 /////KT WIND THR29 06011KT BLU
LIPC 251255Z 05009KT 9999 FEW030 29/21 Q1016
LIPC 251255Z 05009KT 9999 FEW030 29/21 Q1016 RMK FEW VIS MIN 9999 WIND THR11 /////KT WIND THR29 05009KT BLU
LIPC 251155Z 35005KT CAVOK 28/20 Q1018  
LIPC 251155Z 35005KT CAVOK 28/20 Q1018 RMK SKC VIS MIN 9999 WIND THR11 /////KT WIND THR29 03008KT BLU
LIPC 251055Z 32007KT CAVOK 27/20 Q1017  
LIPC 251055Z 32007KT CAVOK 27/20 Q1017 RMK FEW FEW200 VIS MIN 9999 WIND THR11 /////KT WIND THR29 34007KT BLU
LIPC 250955Z 29007KT CAVOK 26/20 Q1018  
LIPC 250955Z 29007KT CAVOK 26/20 Q1018 RMK FEW FEW150 VIS MIN 9999 WIND THR11 /////KT WIND THR29 30007KT BLU
LIPC 250855Z 29008KT CAVOK 25/20 Q1018  
LIPC 250855Z 29008KT CAVOK 25/20 Q1018 RMK SCT SCT150 VIS MIN 9999 WIND THR11 /////KT WIND THR29 29009KT BLU
LIPC 250755Z 29008KT CAVOK 24/20 Q1018  
LIPC 250755Z 29008KT CAVOK 24/20 Q1018 RMK BKN BKN150 VIS MIN 9999 WIND THR11 /////KT WIND THR29 30008KT BLU
LIPC 250655Z 29008KT CAVOK 23/21 Q1017  
LIPC 250655Z 29008KT CAVOK 23/21 Q1017 RMK BKN BKN150 VIS MIN 9999 WIND THR11 /////KT WIND THR29 29008KT BLU
LIPC 250555Z 29006KT 9999 FEW040 22/21 Q1017
LIPC 250555Z 29006KT 9999 FEW040 22/21 Q1017 RMK BKN BKN120 VIS MIN 9999 WIND THR11 /////KT WIND THR29 28006KT BLU
LIPC 250455Z 28007KT 9999 FEW025 22/20 Q1017
LIPC 250455Z 28007KT 9999 FEW025 22/20 Q1017 RMK BKN BKN130 VIS MIN 9999 WIND THR11 /////KT WIND THR29 28006KT BLU